EW3349 Weather Reports


Display with metric or nautical units.
time (UTC)temp
F
wind
direction
speed
MPH
gust
MPH
rain 1hr
in
rain 24hr
in
rain mn
in
humidity
%
barometer
mb
20260507145459 51 11 0.0 2.0 0.00 0.00 0.00 60 1011.7
20260507144510 49 155 0.0 1.0 0.00 0.00 0.00 64 1011.7
20260507143524 49 350 0.0 3.0 0.00 0.00 0.00 60 1011.8
20260507142516 48 346 0.0 3.0 0.00 0.00 0.00 60 1011.9
20260507140330 47 158 0.0 2.0 0.00 0.01 0.00 64 1012.1
20260507135349 47 329 0.0 3.0 0.00 0.01 0.00 63 1012.2
20260507134359 45 335 0.0 0.0 0.00 0.01 0.00 69 1012.3
20260507133408 44 336 0.0 0.0 0.00 0.02 0.00 70 1012.5
20260507132355 43 354 0.0 0.0 0.00 0.02 0.00 72 1012.5
20260507131343 43 348 0.0 0.0 0.00 0.02 0.00 71 1012.6
20260507130333 44 352 0.0 1.0 0.00 0.02 0.00 71 1012.5
20260507124211 43 40 0.0 0.0 0.00 0.03 0.00 72 1012.3
20260507120942 43 359 0.0 0.0 0.00 0.04 0.00 81 1012.3
20260507115946 42 340 0.0 0.0 0.00 0.05 0.00 84 1012.4
20260507114948 41 350 0.0 0.0 0.00 0.06 0.00 89 1012.0
20260507113930 41 350 0.0 0.0 0.00 0.06 0.00 91 1011.9
20260507112943 40 350 0.0 0.0 0.00 0.06 0.00 92 1012.2
20260507112007 39 350 0.0 0.0 0.00 0.06 0.00 93 1012.2
20260507105920 38 350 0.0 0.0 0.00 0.07 0.00 93 1012.0
20260507103714 37 350 0.0 0.0 0.00 0.08 0.00 92 1011.8
20260507101521 36 350 0.0 0.0 0.00 0.10 0.00 92 1011.6
20260507100515 36 350 0.0 0.0 0.00 0.13 0.00 91 1011.8
20260507095526 36 350 0.0 0.0 0.00 0.13 0.00 91 1011.7
20260507093415 35 350 0.0 0.0 0.00 0.16 0.00 91 1011.7
20260507092408 35 350 0.0 0.0 0.00 0.17 0.00 90 1011.6
20260507091347 35 350 0.0 0.0 0.00 0.17 0.00 90 1011.5
20260507090330 35 350 0.0 0.0 0.00 0.18 0.00 90 1011.6
20260507085335 36 350 0.0 0.0 0.00 0.18 0.00 91 1011.6
20260507080926 37 351 0.0 0.0 0.00 0.24 0.00 91 1011.4
20260507075936 38 350 0.0 0.0 0.00 0.26 0.00 91 1011.7
20260507074929 38 350 0.0 0.0 0.00 0.28 0.00 91 1011.8
20260507073952 38 350 0.0 0.0 0.00 0.29 0.00 91 1011.8
20260507072922 38 350 0.0 0.0 0.00 0.31 0.00 91 1011.9
20260507071940 38 350 0.0 0.0 0.00 0.32 0.00 90 1012.0
20260507070926 38 350 0.0 0.0 0.00 0.35 0.00 89 1011.9
20260507065923 39 350 0.0 0.0 0.00 0.36 0.00 88 1011.9
20260507063823 40 350 0.0 0.0 0.00 0.42 0.00 88 1011.7
20260507062828 40 350 0.0 0.0 0.00 0.46 0.00 88 1011.6
20260507060655 41 351 0.0 0.0 0.00 0.51 0.00 87 1011.8
20260507055625 41 350 0.0 0.0 0.00 0.53 0.00 87 1012.0
20260507054636 41 350 0.0 0.0 0.00 0.54 0.00 86 1012.1
20260507053643 41 359 0.0 0.0 0.00 0.54 0.00 87 1012.2
20260507051523 41 49 0.0 0.0 0.00 0.58 0.00 87 1012.3
20260507050534 42 120 0.0 0.0 0.00 0.59 0.00 88 1012.3
20260507045542 42 15 0.0 0.0 0.00 0.61 0.00 89 1012.3
20260507043404 42 3 0.0 0.0 0.00 0.63 0.00 91 1012.3
20260507041309 42 347 0.0 0.0 0.00 0.66 0.00 92 1012.2
20260507040320 42 315 0.0 0.0 0.00 0.66 0.00 92 1012.0
20260507035306 42 15 0.0 1.0 0.00 0.67 0.67 93 1012.0
20260507031920 42 180 0.0 0.0 0.00 0.72 0.67 93 1011.8
20260507030912 42 13 0.0 0.0 0.00 0.72 0.67 93 1011.6
20260507025905 42 12 0.0 0.0 0.00 0.72 0.67 93 1011.6
20260507024924 42 10 0.0 0.0 0.00 0.73 0.67 93 1011.6
20260507023857 42 28 0.0 1.0 0.00 0.73 0.67 93 1011.7
20260507022829 42 344 0.0 0.0 0.00 0.74 0.67 93 1011.7
20260507021842 42 354 0.0 0.0 0.00 0.75 0.67 93 1011.7
20260507020839 42 345 0.0 0.0 0.00 0.76 0.67 93 1011.8
20260507015807 42 333 0.0 0.0 0.00 0.76 0.67 93 1011.9
20260507014819 42 350 0.0 0.0 0.00 0.77 0.67 93 1011.8
20260507013753 43 326 0.0 2.0 0.00 0.78 0.67 93 1011.6
20260507012757 43 339 0.0 2.0 0.00 0.79 0.67 93 1011.6
20260507011744 43 82 0.0 2.0 0.00 0.79 0.67 93 1011.8
20260507004407 44 340 0.0 0.0 0.00 0.79 0.67 91 1011.0
20260507003423 44 341 0.0 2.0 0.00 0.80 0.67 90 1010.5
20260507002409 45 329 0.0 6.0 0.00 0.81 0.67 90 1010.5
20260507001343 46 266 0.0 6.0 0.00 0.82 0.67 90 1010.2
20260507000328 47 160 0.0 1.0 0.00 0.83 0.67 90 1010.2
20260506235341 47 340 0.0 1.0 0.00 0.84 0.67 89 1010.2
20260506234323 48 328 0.0 2.0 0.00 0.84 0.67 88 1010.3
20260506231105 49 329 0.0 0.0 0.00 0.88 0.67 83 1009.5
20260506230116 49 330 0.0 0.0 0.00 0.90 0.67 82 1009.3
20260506225050 49 184 0.0 0.0 0.00 0.92 0.67 81 1009.4
20260506222845 49 184 0.0 0.0 0.00 0.93 0.67 82 1009.3
20260506221857 49 184 0.0 0.0 0.00 0.93 0.67 82 1009.3
20260506220849 49 195 0.0 0.0 0.00 0.93 0.67 83 1009.3
20260506215829 49 195 0.0 0.0 0.00 0.93 0.67 82 1009.1
20260506214831 49 181 0.0 0.0 0.00 0.93 0.67 83 1008.9
20260506213821 49 181 0.0 0.0 0.00 0.93 0.67 81 1009.0
20260506212828 49 198 0.0 0.0 0.00 0.93 0.67 80 1009.3
20260506211848 49 1 0.0 0.0 0.00 0.93 0.67 80 1009.1
20260506210814 49 138 0.0 0.0 0.00 0.93 0.67 81 1009.1
20260506204628 49 153 0.0 0.0 0.00 0.93 0.67 81 1009.0
20260506203604 48 356 0.0 0.0 0.00 0.93 0.67 82 1009.0
20260506202549 48 356 0.0 0.0 0.00 0.93 0.67 80 1009.0
20260506201555 49 129 0.0 0.0 0.00 0.93 0.67 79 1009.0
20260506195438 49 330 0.0 0.0 0.00 0.93 0.67 81 1009.2
20260506194452 49 345 0.0 0.0 0.00 0.93 0.67 85 1009.0
20260506193447 48 312 0.0 0.0 0.00 0.93 0.67 85 1008.8
20260506192455 48 338 0.0 1.0 0.00 0.93 0.67 84 1008.9
20260506191439 48 349 0.0 1.0 0.00 0.93 0.67 88 1009.0
20260506190406 47 332 0.0 1.0 0.00 0.93 0.67 89 1009.1
20260506185357 46 349 0.0 1.0 0.00 0.93 0.67 91 1009.0
20260506184340 46 132 0.0 1.0 0.00 0.93 0.67 92 1009.0
20260506183328 45 37 0.0 2.0 0.00 0.93 0.67 93 1008.9
20260506182318 45 347 0.0 2.0 0.00 0.93 0.67 92 1009.0
20260506181317 45 351 0.0 2.0 0.00 0.93 0.67 92 1008.9
20260506180319 45 354 0.0 0.0 0.00 0.93 0.67 92 1008.9
20260506175317 45 333 0.0 2.0 0.00 0.93 0.67 92 1009.1
20260506174323 46 352 0.0 1.0 0.00 0.93 0.67 92 1008.8
20260506173318 46 317 0.0 0.0 0.00 0.93 0.67 92 1008.4
20260506172340 46 348 0.0 2.0 0.00 0.93 0.67 91 1008.4
20260506171328 47 346 0.0 1.0 0.00 0.93 0.67 93 1008.1
20260506170347 46 29 0.0 0.0 0.00 0.93 0.67 93 1008.0
20260506165408 46 354 0.0 0.0 0.00 0.93 0.67 93 1008.2
20260506164428 46 331 0.0 0.0 0.00 0.93 0.67 93 1008.1
20260506163452 46 336 0.0 0.0 0.00 0.93 0.67 94 1008.1
20260506162501 46 148 0.0 0.0 0.00 0.93 0.67 93 1007.9
20260506161451 46 136 0.0 0.0 0.00 0.93 0.67 94 1008.0
20260506160500 45 349 0.0 1.0 0.00 0.93 0.67 94 1008.0
20260506155445 45 348 0.0 1.0 0.00 0.93 0.67 94 1008.2
20260506153246 46 243 0.0 0.0 0.00 0.93 0.67 95 1008.0
20260506152231 46 23 0.0 0.0 0.00 0.93 0.67 95 1007.9
20260506151239 45 104 0.0 0.0 0.00 0.93 0.67 95 1007.7
20260506150207 45 335 0.0 0.0 0.00 0.93 0.67 95 1008.0